COSMOS 2251 DEB, 34031

Orbit data source: Space-Track

COSMOS 2251 DEB, 34031 is space debris in LEO originally from a launch on Wed, 16 Jun 1993 UTC launched from the Plesetsk Missile And Space Complex (PKMTR). The debris from Iridium 33, an American commercial communications satellite, has been tracked extensively since its accidental collision with the defunct Russian satellite Cosmos 2251 in 2009. This event, occurring at high speed in low Earth orbit (LEO), generated thousands of pieces of space debris, significantly increasing the risk of further collisions. The Iridium 33 debris cloud has impacted space traffic management and orbital debris mitigation strategies, making it a subject of ongoing study in space situational awareness.

Loading next visibility...
Identifier
34031, 1993-036HS
Orbit
LEO
Country
Flag of CISCIS
Related business
Manufacturer
Unknown
Mission
Spacecraft
Bus & Motor
Unknown
Mass
Unknown
Launch date (UTC)
1993-06-16 (33 years ago)
Launch vehicle
Unknown
Launch site
Plesetsk Missile And Space Complex (PKMTR)
Object type
Payload
Rocket body
Debris
Shape & HBR
Unknown shape, 0.1 m
Radar Cross Section
Small (<0.1 m²)

Expand to show TLE details & history
Last TLE update: 15 hours ago

TLE from 15 hours ago
0 COSMOS 2251 DEB
1 34031U 93036HS  26120.76949238  .00003616  00000-0  73703-3 0  9990
2 34031  74.0131 229.8088 0023040 315.2528 198.8961 14.61196806905953
Epoch: 2026-04-30T18:28Z
TLE epoch observation values (Epoch: 2026-04-30T18:28:04.141Z)
Latitude
24.89864°
Longitude
-93.52034°
Altitude
707.452 km
Speed
7.496 km/s
True Right ascension
02h 48m 49s
True Declination
24° 45' 60"
Sunlit
Object was in daylight at epoch
Visualization orbit readout
Latitude
Unknown
Longitude
Unknown
Altitude
Unknown
Speed
Unknown
Apparent Right ascension
Unknown
Apparent Declination
Unknown
Sunlit
N/A
Visualization observer readout
Local Sidereal Time
17:12:21
Azimuth
Unknown
Elevation
Unknown
Doppler factor
Unknown
Orbital elements
Apogee altitude
703.188 km
Perigee altitude
670.633 km
Semi-major axis
7,065.047 km
Eccentricity
0.0023
Inclination
74.0131°
RAAN
229.8088°
Arg. of periapsis
315.2528°
True anomaly
198.81083°
Mean anomaly
198.8961°
Eccentric anomaly
198.85344°
Mean motion
3.65486 °/min
Orbital period
98.5 mins
BSTAR
0.00073703
Loading maneuver chart data...
Computing Atmospheric mass density...
Loading historical data...
Loading historical data...
Loading historical data...
Loading historical data...
Loading historical data...
Loading historical data...
Loading historical data...

Documentation

Showing up to 5 results
|